Theta_e
316 317 317 322 327 330 331 332 332 332 332 331 332 333 334 334 334 334 335 335 335 334 334 334 333 333 333 333 332 332 332 332 332 332 331 332 332 332 332 331 331 330 330 332 332 332 333 333 333 333 333 334 334 330 327 326 325 324 324 324 324 324 323 321 319 318 317 315 316 318 324 330 336 339 339 339 339 338 337 337 336 333 332 336 339
315 315 316 319 321 323 325 326 326 329 329 329 330 331 332 333 333 332 333 334 334 333 334 334 333 335 335 334 334 335 334 334 334 334 334 333 334 333 334 334 334 333 333 333 333 333 333 333 333 333 333 334 335 332 329 327 326 325 324 323 323 323 324 323 322 320 319 317 316 315 316 320 329 336 338 338 339 339 339 338 337 336 333 335 339
315 315 315 316 316 317 319 319 320 323 324 325 326 327 329 329 329 330 331 331 331 331 331 332 333 334 333 333 334 335 335 334 334 335 335 334 334 334 334 335 335 335 334 334 335 335 334 334 334 334 334 334 335 333 331 328 327 326 325 323 323 322 322 322 323 323 322 320 318 317 315 316 322 331 336 337 338 338 339 339 338 338 335 333 336
314 314 314 314 314 315 315 314 315 316 317 319 320 321 322 323 324 325 327 328 328 329 329 330 331 331 330 331 332 332 333 333 333 334 334 334 334 333 333 333 334 335 335 335 336 336 335 335 335 335 336 335 335 334 333 331 330 329 327 325 324 323 321 321 321 322 322 323 322 319 317 315 318 327 333 335 336 337 337 338 339 339 338 334 333
313 313 313 314 313 313 313 313 313 313 313 314 314 315 315 315 317 318 319 320 322 324 326 327 328 329 329 329 330 330 330 330 331 332 332 332 332 332 331 332 332 333 334 335 336 336 336 337 336 336 336 336 335 334 333 333 332 332 331 328 327 325 323 322 321 320 320 322 323 322 319 315 319 327 331 333 335 337 337 338 338 338 339 336 332
313 313 314 313 313 313 313 313 313 313 313 313 313 313 313 313 313 313 313 313 314 315 317 320 322 323 326 327 328 329 329 330 330 330 330 330 330 329 329 329 330 331 332 333 334 335 335 337 336 336 336 335 334 334 334 333 333 332 332 331 329 328 327 326 324 323 321 321 322 322 321 318 321 324 327 332 335 335 337 336 338 338 339 339 335
313 313 313 313 312 312 312 312 311 311 311 311 311 311 311 311 311 311 311 311 311 311 312 313 313 315 317 319 321 323 325 326 327 328 328 328 328 327 326 326 327 328 329 330 332 333 333 334 334 335 334 334 334 334 334 334 334 333 333 332 331 331 330 328 327 326 324 323 322 322 322 321 322 320 319 324 327 330 334 335 336 337 338 339 338
313 313 313 312 311 311 310 309 309 309 309 309 309 309 309 309 309 309 309 309 310 310 310 310 310 311 311 312 313 314 316 317 318 319 320 320 320 321 321 321 322 323 325 326 328 330 331 332 332 333 333 333 333 333 333 333 333 333 332 332 331 331 331 330 328 327 326 325 324 323 323 323 323 321 320 320 318 319 322 327 332 335 337 338 340
313 312 311 311 310 309 308 308 308 308 308 308 308 308 307 307 307 307 308 307 308 308 308 309 309 309 309 310 310 310 311 311 312 312 312 313 313 313 314 315 315 317 318 320 322 324 327 328 329 331 332 332 332 332 332 332 332 332 331 331 330 330 330 330 329 329 327 326 326 326 327 326 324 324 328 328 324 319 315 315 321 330 335 336 338
312 312 311 309 308 308 308 308 308 308 308 307 307 307 307 307 306 306 306 306 306 306 306 307 307 307 308 308 308 309 309 309 309 310 310 310 310 311 311 311 311 312 313 314 315 317 319 321 323 324 326 327 327 328 328 330 330 331 331 330 330 329 329 329 330 330 329 327 327 327 327 327 326 327 329 327 324 323 321 317 314 318 327 333 337
313 312 310 309 308 308 307 307 307 307 307 307 307 306 306 306 305 305 305 304 304 304 304 304 305 305 305 305 305 306 306 306 307 307 307 308 308 308 309 309 309 310 310 311 311 312 313 315 316 317 318 319 320 321 322 324 326 328 329 330 330 330 329 329 329 329 329 329 328 327 327 327 326 327 327 325 323 322 324 325 322 317 317 323 332
312 311 310 309 308 308 308 307 307 307 307 306 306 305 305 304 303 303 303 303 303 303 303 303 303 303 303 303 303 303 303 304 304 304 304 304 304 305 305 305 306 307 307 308 308 309 310 310 311 312 312 313 314 315 316 318 320 322 325 327 328 329 329 329 329 329 329 329 329 329 328 328 328 328 327 327 326 324 323 325 327 326 322 318 321
312 311 310 309 308 308 308 307 307 306 306 306 305 304 303 302 302 302 302 302 302 302 302 302 302 302 302 302 302 302 302 303 302 303 303 303 303 303 303 303 303 304 304 305 305 305 306 307 307 308 308 309 310 310 311 312 314 315 317 320 322 324 327 328 329 329 329 329 330 330 329 328 328 328 328 327 326 325 325 324 324 326 327 325 320
312 311 310 309 308 307 307 307 306 306 306 305 303 302 302 302 302 302 302 302 302 302 302 302 302 302 302 302 302 302 302 302 302 302 302 302 302 302 302 302 302 302 303 303 303 303 303 303 304 304 304 305 306 306 307 308 309 310 311 312 314 316 319 322 326 328 329 329 328 329 329 328 328 327 328 329 327 326 325 325 324 323 324 327 327
312 311 309 308 307 307 307 306 306 305 305 304 302 302 302 302 302 302 302 302 302 302 302 302 302 302 302 302 302 302 302 302 302 302 302 302 302 302 302 302 302 302 302 302 302 302 303 303 303 303 303 303 303 303 304 304 305 305 307 308 309 310 312 314 317 322 326 329 329 329 328 328 328 327 328 328 328 327 326 325 325 325 323 323 325
311 310 309 308 308 307 307 306 306 306 305 303 303 302 302 302 302 302 302 302 301 301 301 301 301 301 301 301 301 301 301 301 301 301 301 301 301 302 301 301 302 301 302 302 302 302 302 302 302 303 303 303 303 303 303 303 303 303 303 304 305 306 307 309 311 313 317 322 327 328 329 328 328 327 327 327 328 328 327 326 325 324 324 324 323
311 310 310 309 308 307 307 307 307 306 306 304 303 302 302 303 303 302 302 302 302 301 301 301 301 301 301 301 301 301 301 301 301 301 301 301 301 301 301 301 301 301 301 301 301 301 301 301 301 302 302 302 302 302 303 303 303 303 303 303 303 303 303 304 306 307 310 313 317 320 323 324 326 328 328 328 329 329 329 328 327 325 325 327 327
311 311 310 309 308 308 307 307 307 307 306 305 304 303 303 303 303 303 303 302 302 302 302 301 301 301 301 301 301 301 301 301 301 301 301 300 300 300 300 300 300 300 300 300 300 300 300 300 300 301 301 301 301 302 302 302 302 302 303 302 302 302 302 302 303 304 305 307 309 311 313 315 319 323 326 327 329 329 329 328 327 327 327 327 327
311 311 311 310 309 308 308 308 308 307 307 305 304 303 303 303 303 303 303 303 303 303 303 303 302 302 302 302 302 302 302 302 302 302 301 301 301 300 300 300 300 300 300 300 300 300 300 300 300 300 300 300 301 301 301 301 301 302 302 302 302 302 302 302 302 302 302 303 304 305 307 309 311 314 316 319 324 326 328 328 327 327 326 325 324
311 311 311 310 309 308 308 308 308 307 307 306 305 303 303 303 303 303 303 303 303 304 304 304 304 303 303 303 303 303 304 304 303 303 303 303 303 302 302 301 301 300 300 300 300 299 299 299 299 299 300 300 300 300 300 301 301 301 301 301 302 302 302 302 302 302 302 302 301 302 303 304 305 307 308 310 314 319 321 323 325 326 326 325 324
312 312 311 310 309 308 308 308 307 307 306 306 304 303 303 303 303 303 303 303 304 304 304 304 304 304 304 304 304 305 305 304 304 305 305 304 304 304 303 302 301 301 300 300 300 300 299 299 299 299 299 299 300 300 300 300 300 300 301 301 301 301 302 302 302 302 302 302 301 301 301 301 302 302 303 304 306 308 311 314 316 320 322 323 324
313 312 311 311 309 308 308 308 307 307 306 306 305 303 303 302 303 303 303 303 304 304 304 304 304 304 304 304 304 304 304 304 304 305 305 305 305 305 304 303 302 301 300 300 299 299 299 299 299 299 299 299 299 300 300 300 300 300 300 300 300 301 301 301 301 301 301 301 301 301 301 301 301 301 301 301 302 302 304 306 309 311 314 316 320
313 312 312 311 310 308 308 307 307 307 306 305 305 303 303 302 302 302 303 303 303 303 304 304 304 304 304 304 304 304 304 304 304 304 305 305 305 305 304 304 303 302 301 300 300 299 299 299 299 299 299 299 299 299 300 300 300 300 300 300 300 300 300 300 300 301 301 301 301 301 301 301 301 301 301 301 301 301 302 302 304 306 308 310 314
313 313 312 311 311 309 308 307 307 306 306 305 304 303 303 302 302 302 302 303 303 303 303 303 303 304 304 304 304 304 304 304 304 304 304 304 304 304 304 304 304 303 302 301 300 300 299 299 299 299 299 299 299 299 299 299 299 300 300 300 300 300 300 300 300 300 300 300 300 300 300 300 301 301 301 301 301 301 301 301 302 302 303 306 308
313 313 312 312 311 309 308 307 307 306 305 305 304 303 303 302 302 302 302 302 303 303 303 303 303 303 303 303 303 303 303 303 303 303 303 304 304 304 304 304 304 303 303 302 301 300 299 299 298 298 299 299 299 299 299 299 299 299 299 299 300 300 300 300 300 300 300 300 300 300 300 300 300 300 300 300 300 301 301 301 301 302 302 302 304
312 313 313 312 312 310 308 307 306 306 305 305 304 303 302 302 301 302 302 302 302 303 303 303 303 303 303 303 303 303 303 303 303 303 303 303 303 303 303 303 303 303 303 302 301 300 299 298 298 298 298 298 298 298 298 298 299 299 299 299 299 299 299 299 299 300 300 300 300 300 300 300 300 300 300 300 300 300 300 301 301 301 302 302 302
312 313 313 312 312 310 309 307 306 305 305 304 304 303 302 302 301 301 302 302 302 302 302 302 302 303 302 302 302 302 302 302 302 302 302 302 302 302 302 302 302 302 302 301 301 300 299 298 298 297 297 297 297 297 297 298 298 298 298 298 298 298 299 299 299 299 299 300 300 300 300 300 300 300 300 300 300 300 300 300 300 301 301 302 301
312 312 312 312 311 311 310 307 306 305 304 304 304 303 303 302 301 301 301 301 302 302 302 302 302 302 302 302 302 302 302 302 302 302 302 302 302 302 302 301 301 301 301 301 300 299 298 298 297 297 297 297 297 297 297 297 297 297 298 298 298 298 298 298 298 298 299 299 299 299 300 300 300 300 300 300 300 300 300 300 300 300 300 301 301
311 311 311 311 311 311 310 308 306 305 305 304 304 303 303 302 301 301 301 301 302 302 302 302 302 302 302 301 301 301 301 302 302 302 302 302 302 302 301 301 301 300 300 300 299 298 297 297 296 296 296 296 296 297 297 297 297 297 297 297 297 297 298 298 298 298 298 298 298 299 299 299 299 299 300 300 300 300 300 300 300 300 300 300 301
310 310 310 311 311 311 310 309 306 305 305 304 304 303 303 302 301 301 301 301 301 302 302 302 302 301 301 301 301 301 301 301 301 301 301 301 301 301 301 301 300 300 300 299 298 297 296 296 296 296 296 296 296 296 296 296 296 296 296 297 297 297 297 297 297 298 298 298 298 298 299 299 299 299 299 299 300 300 300 300 300 300 300 300 300
310 310 310 310 310 310 310 309 307 306 305 304 304 304 303 302 301 301 300 301 301 301 301 301 301 301 301 301 301 301 301 301 301 301 301 301 301 301 301 300 300 299 299 298 297 296 296 296 296 296 295 295 295 295 296 296 296 296 296 296 296 296 296 297 297 297 297 298 298 298 298 299 299 299 299 299 299 299 300 299 300 300 300 300 300
310 310 310 310 310 310 310 310 308 306 305 304 304 304 303 302 301 300 300 301 301 301 301 301 301 301 301 301 301 301 301 301 301 301 301 301 301 300 300 300 299 299 298 298 296 296 295 295 295 295 295 295 295 295 295 295 295 295 295 295 295 295 296 296 296 296 296 297 297 297 298 298 298 299 299 299 299 299 299 299 299 299 300 300 300
311 310 309 309 310 310 310 309 308 307 306 305 304 303 303 302 301 300 300 300 300 300 301 301 301 300 300 300 301 301 301 301 301 301 301 300 300 300 300 300 299 298 298 297 296 296 295 295 295 295 294 294 294 294 294 294 294 295 295 295 295 295 295 295 296 296 296 296 297 297 297 298 298 298 299 299 299 299 299 299 299 299 299 299 299
310 310 309 309 309 309 309 309 308 307 306 304 304 303 303 302 300 300 300 300 300 300 300 300 300 300 300 300 300 300 301 301 301 300 300 300 300 300 300 299 298 298 297 296 296 295 294 294 294 294 294 294 294 294 294 294 294 294 294 295 295 295 295 295 296 296 296 296 297 297 297 298 298 298 299 299 299 299 298 298 299 299 299 299 299
310 310 310 309 309 309 309 308 308 308 306 305 304 303 303 302 300 300 300 300 300 300 300 300 300 300 300 300 300 300 300 300 300 300 300 300 300 300 299 299 298 297 297 296 295 294 294 294 294 294 294 294 294 293 293 294 294 294 294 294 294 295 295 295 296 296 296 296 297 297 297 298 298 298 298 298 298 298 298 299 299 299 299 299 299
311 310 309 309 309 309 308 308 308 308 307 305 304 303 303 302 300 300 299 299 300 300 300 300 300 300 300 300 300 300 300 300 300 300 300 300 300 299 299 298 298 297 296 295 294 294 294 293 293 293 294 293 293 293 293 293 294 294 294 294 294 294 295 295 296 296 296 296 297 297 297 297 297 297 297 297 298 299 299 299 299 298 298 298 298
311 310 309 309 309 309 308 308 308 308 307 305 304 303 302 302 300 300 299 299 299 299 299 299 299 300 300 300 300 300 300 300 299 299 299 299 299 299 299 298 297 296 295 294 294 293 293 293 293 293 293 293 293 293 293 293 293 293 294 293 294 294 294 295 295 296 296 296 296 297 297 297 296 296 296 296 297 297 298 298 298 298 298 297 297
310 309 309 309 309 309 308 308 307 307 306 305 304 303 302 301 300 300 299 299 299 299 299 299 299 299 299 300 299 299 299 299 299 299 299 299 299 299 298 297 297 296 295 294 293 293 293 293 293 293 292 292 292 292 292 293 293 293 293 293 294 294 294 295 295 295 295 296 296 296 296 296 296 295 295 295 295 295 295 296 296 296 297 296 296
309 309 308 308 308 308 307 307 307 306 306 305 304 302 302 301 300 299 299 299 298 299 299 299 299 299 299 299 299 299 299 299 299 299 299 299 299 298 298 297 296 296 295 294 293 293 293 292 292 292 292 292 291 291 292 292 292 293 293 293 294 294 294 294 294 294 295 295 295 295 295 295 295 294 294 294 294 294 294 294 294 294 295 295 295
309 308 308 308 308 308 307 306 306 306 305 304 303 302 301 300 300 299 299 298 298 298 298 299 298 299 299 299 299 299 299 299 299 299 299 299 298 298 297 297 296 295 295 294 293 293 292 292 292 292 292 292 291 291 291 291 292 293 293 293 293 294 294 294 294 294 295 295 294 294 293 293 293 293 293 293 292 292 292 293 293 293 293 293 294
308 308 307 307 308 308 307 306 306 305 305 305 304 302 301 301 300 300 299 298 298 298 298 298 298 298 298 299 299 299 298 299 299 299 299 298 298 297 297 297 296 295 294 294 293 293 292 292 292 292 292 292 291 291 291 291 292 292 293 293 294 294 293 293 293 294 294 293 293 293 293 293 293 293 293 293 292 292 292 292 292 292 292 292 293
308 307 308 308 308 308 307 307 306 305 305 305 304 303 302 302 301 301 300 298 298 298 298 298 298 298 298 298 298 298 298 298 298 298 298 298 298 297 297 297 296 295 294 294 293 292 292 291 292 292 291 291 291 291 290 291 291 291 291 292 293 293 293 293 294 293 293 292 293 293 293 293 294 294 293 293 293 292 292 292 291 291 291 291 291
308 308 308 308 308 307 307 306 305 305 305 305 304 303 302 301 301 300 299 298 298 298 297 298 298 298 298 298 298 298 298 298 298 298 298 298 297 297 297 296 296 295 294 294 293 292 291 291 291 291 291 290 290 290 290 290 290 290 290 289 290 290 291 292 292 292 293 293 294 294 293 293 293 293 293 293 293 292 292 291 291 291 291 290 290
308 308 308 308 307 307 307 306 306 305 305 304 304 303 301 300 300 299 298 297 297 297 297 297 297 297 297 298 297 297 298 298 298 298 298 297 297 297 297 296 295 294 294 293 292 291 291 291 291 290 290 290 290 290 290 290 290 289 289 288 288 288 289 289 289 290 293 294 294 293 293 293 293 293 292 292 292 292 292 292 292 291 291 290 290
308 308 308 308 308 307 307 306 306 305 304 304 303 302 301 300 299 298 296 296 296 296 297 297 297 297 297 297 297 297 297 298 298 297 297 297 297 297 296 296 295 294 293 292 291 291 290 290 290 290 290 289 289 289 290 290 289 289 288 287 287 287 287 287 287 289 291 292 292 293 293 293 293 292 292 291 291 291 291 292 292 291 291 291 290
308 309 308 308 308 307 307 306 306 305 304 304 303 302 301 300 300 299 298 297 297 297 297 298 298 298 297 297 297 297 297 297 297 297 297 297 297 297 296 295 294 293 293 292 291 290 290 290 290 290 290 289 289 289 289 289 289 289 288 287 287 286 286 286 286 287 289 291 291 291 292 292 292 291 291 291 291 291 291 291 291 291 291 291 291
309 309 308 308 308 308 307 307 306 305 304 303 302 301 301 300 300 300 299 299 298 298 298 298 298 297 297 296 296 297 297 297 297 297 297 297 297 296 296 295 294 293 292 291 291 290 290 290 290 290 290 289 289 289 289 289 288 288 287 287 286 286 286 285 285 285 287 290 290 290 290 290 290 290 290 290 290 290 290 290 290 290 290 290 290
310 309 308 308 309 308 308 307 307 306 304 303 302 301 301 300 300 300 299 298 298 298 298 297 297 297 296 296 296 297 297 296 296 296 296 296 296 296 295 294 293 292 292 291 290 290 290 290 290 290 289 289 289 288 288 288 288 287 287 286 286 286 285 285 285 285 285 287 289 290 290 289 288 288 289 289 289 289 289 289 290 290 290 290 290
310 310 310 309 309 308 308 307 307 306 304 303 302 301 301 300 300 299 299 298 297 297 297 297 296 296 296 296 296 296 296 296 296 296 296 296 296 295 294 293 293 292 291 291 290 290 290 290 290 289 289 289 288 288 288 287 287 287 287 286 286 286 286 285 285 285 285 285 287 289 290 289 288 288 288 289 289 289 289 289 289 290 290 290 290
311 311 310 309 309 308 308 308 307 306 305 303 302 301 300 300 299 299 298 298 297 296 296 296 295 295 296 296 296 296 296 296 296 296 296 296 295 294 294 293 292 291 291 290 290 290 289 289 289 289 289 289 288 287 287 287 287 286 286 286 286 285 285 285 285 285 285 285 285 287 288 289 288 288 288 288 288 288 289 289 290 290 290 290 290
311 311 310 310 310 309 308 308 307 306 305 304 302 301 300 300 299 299 298 298 297 296 296 295 295 295 295 295 296 296 296 296 296 295 295 295 295 294 293 292 292 291 290 290 290 290 289 289 289 289 289 288 287 287 287 287 286 286 286 286 286 285 285 285 285 285 284 284 285 285 287 288 288 289 288 288 288 288 288 289 290 290 290 290 290
Wind_Speed
11 13 13 12 10 8 6 5 5 5 4 3 3 3 2 2 2 2 2 2 2 3 3 3 4 4 3 4 5 4 4 4 5 5 5 6 6 6 5 6 6 6 6 7 8 8 8 8 8 9 9 10 9 9 8 7 8 8 8 8 8 8 7 7 7 8 7 7 7 8 8 8 8 8 8 9 10 10 9 9 9 9 9 8 8
11 12 12 11 10 9 8 6 5 4 4 3 3 2 1 1 2 3 3 3 3 3 4 4 4 3 3 3 4 4 3 3 4 4 4 5 6 6 6 6 6 7 6 7 8 8 8 8 8 9 9 9 10 10 9 7 7 8 9 8 8 8 8 8 8 9 9 8 8 8 8 8 8 8 8 9 10 11 11 10 9 9 10 9 8
10 11 11 10 9 8 8 7 4 4 3 3 3 3 3 3 4 4 4 5 5 4 4 4 4 4 5 4 4 4 5 4 4 4 4 4 5 6 6 7 7 7 7 7 7 7 8 8 8 9 9 9 10 10 10 9 9 9 9 9 9 9 9 9 8 9 9 10 9 9 9 8 7 8 8 9 9 11 12 12 11 9 9 10 10
10 10 11 9 7 6 6 4 2 2 2 3 3 3 3 4 5 5 5 6 6 6 6 6 6 6 6 5 4 5 6 6 5 5 5 5 5 6 7 7 7 7 7 7 7 7 8 8 8 8 8 9 10 10 11 10 10 10 10 10 10 10 11 11 10 10 10 10 10 10 9 8 7 7 8 9 9 10 12 12 12 11 10 10 10
10 9 9 8 6 5 4 2 1 1 0 1 2 3 4 5 6 6 6 7 7 7 7 8 8 8 9 8 8 8 9 9 8 8 9 8 8 8 8 8 8 8 7 7 7 7 7 7 7 8 8 9 10 11 12 11 11 11 11 11 11 11 12 12 13 13 12 11 11 11 10 9 7 7 8 9 9 10 11 12 12 12 11 10 10
11 9 8 6 5 4 3 2 2 1 1 2 2 3 4 5 6 7 7 8 8 8 8 9 9 10 10 10 10 10 10 10 10 11 11 11 11 11 10 10 10 10 9 8 8 7 6 6 7 7 9 10 12 13 13 13 12 12 12 13 13 13 13 13 14 14 14 13 12 12 11 9 8 9 10 10 10 10 10 11 12 13 13 12 11
10 9 6 5 5 4 4 3 2 1 0 1 1 2 3 4 5 5 6 6 7 7 7 9 9 9 10 10 10 11 11 11 11 12 12 12 12 13 12 11 11 11 10 10 10 10 9 9 8 9 11 12 12 13 14 14 14 14 14 15 15 14 14 14 14 14 14 14 13 13 13 11 10 11 11 12 14 13 12 12 13 13 13 13 13
9 8 7 6 5 5 4 4 4 3 3 2 2 2 2 2 3 4 4 5 5 6 6 7 8 8 8 8 9 9 10 10 11 12 12 12 12 12 12 12 12 12 12 11 11 12 13 13 12 13 14 14 14 14 14 14 15 15 15 15 16 16 15 15 15 14 14 13 13 13 12 13 13 13 12 13 15 16 15 15 15 15 15 14 14
10 9 7 6 5 5 5 5 4 4 4 4 4 4 4 4 4 4 4 5 5 5 6 6 6 6 7 7 7 8 8 9 10 11 11 11 12 12 12 12 12 12 12 13 13 13 14 15 15 14 15 15 16 16 16 16 17 17 17 16 16 16 16 16 15 15 15 14 14 12 10 12 14 15 15 15 16 16 15 15 16 16 17 16 15
11 9 7 6 5 5 5 4 4 4 4 4 4 4 4 4 4 4 4 5 5 5 5 6 6 6 6 6 7 7 7 8 9 9 10 11 11 11 11 12 12 12 12 13 14 14 15 16 16 16 16 17 17 17 18 18 18 19 18 18 17 17 17 17 16 16 15 15 15 14 12 12 13 14 16 18 18 17 15 14 15 16 17 18 17
9 6 5 4 3 3 4 4 4 4 3 3 3 3 3 3 3 3 3 4 4 5 5 6 6 6 7 7 7 7 8 8 8 9 9 10 10 10 10 10 11 11 11 12 13 14 15 15 17 18 18 18 18 18 18 19 19 19 19 19 18 18 18 18 18 18 17 16 15 15 14 14 13 13 14 17 20 20 19 18 16 15 16 17 17
8 5 4 3 2 2 3 3 3 3 3 3 3 3 2 2 2 3 3 3 4 4 5 5 6 6 6 7 7 7 7 7 8 8 9 9 9 9 10 10 10 10 11 12 12 13 14 15 16 17 18 18 18 19 19 20 20 20 20 20 19 19 19 19 20 19 19 18 16 16 15 15 15 15 15 15 18 20 21 21 20 18 17 17 17
8 6 5 4 5 5 5 4 3 2 2 3 3 3 3 3 3 3 3 3 4 4 4 5 5 5 6 6 6 5 6 6 6 6 7 7 7 8 8 9 9 9 10 11 12 13 14 15 16 17 17 18 18 18 19 19 20 20 21 21 21 20 20 19 20 20 20 20 19 18 17 16 16 17 17 16 17 19 20 20 20 21 20 18 17
10 8 8 8 8 7 6 4 2 2 3 3 3 3 3 4 4 4 4 4 3 4 4 4 4 4 4 4 4 4 4 4 5 5 5 6 6 7 7 8 8 8 9 9 10 11 13 14 15 16 17 18 18 19 19 20 20 20 21 21 21 21 21 21 20 20 20 20 21 20 19 18 18 18 18 18 18 19 20 20 19 21 21 20 19
12 10 10 9 8 7 5 4 2 2 2 3 3 3 4 4 4 4 4 4 3 4 3 4 4 4 4 4 5 5 5 5 5 6 6 7 7 7 8 8 9 9 9 9 9 9 10 11 12 13 15 16 17 18 19 19 20 21 21 21 21 21 21 22 21 21 21 21 21 21 21 20 20 19 19 19 19 19 20 20 20 20 21 21 21
12 12 11 9 9 7 5 3 2 2 2 2 2 3 3 4 4 4 4 4 4 4 4 4 4 4 5 5 5 5 6 6 7 7 7 8 8 8 9 9 9 10 10 10 10 10 10 10 11 11 12 13 14 15 16 17 18 19 20 20 21 20 20 21 21 21 21 22 23 23 22 22 21 21 22 22 20 20 20 21 21 21 21 21 21
14 13 11 10 9 7 5 4 3 2 1 1 2 2 3 4 5 5 4 4 4 4 5 5 5 5 5 6 6 6 7 7 8 9 9 9 10 10 10 11 11 11 12 12 12 12 12 12 12 12 12 12 12 13 13 14 15 16 18 19 19 19 19 19 20 20 20 21 22 23 23 23 22 22 22 22 21 19 20 20 21 21 21 19 20
16 15 13 12 11 8 7 6 5 4 2 1 0 1 2 3 5 5 5 5 4 4 5 5 5 6 6 8 8 9 9 10 11 11 11 12 12 13 13 14 14 14 14 14 15 15 15 15 15 14 14 13 13 13 13 13 14 15 16 16 17 17 17 17 19 20 20 20 20 21 21 23 23 23 23 23 21 21 21 21 22 22 22 21 20
18 17 15 14 13 11 10 9 8 7 5 4 3 3 2 3 4 4 4 4 4 4 5 5 6 7 8 8 9 9 10 11 12 12 13 14 15 15 15 15 16 16 16 16 16 16 16 16 16 16 16 16 15 15 14 14 14 14 14 15 15 16 16 16 16 17 18 18 19 19 20 22 24 24 26 25 23 23 24 23 23 24 25 25 25
20 20 18 16 16 14 13 12 11 9 7 6 5 5 5 4 4 4 4 3 3 4 4 5 5 6 7 7 8 8 9 10 11 12 13 14 15 15 16 16 16 16 16 16 16 16 16 16 16 16 16 16 16 16 15 15 15 14 14 14 15 15 15 15 14 14 15 16 17 18 19 22 24 25 26 27 25 25 25 25 26 25 26 26 27
23 23 21 19 18 17 16 14 13 11 10 8 8 7 7 6 5 5 5 4 4 4 4 3 4 4 5 5 6 7 8 9 9 11 12 13 14 14 15 15 15 15 15 15 15 15 15 15 15 15 15 15 15 15 16 15 15 15 15 14 14 15 15 15 14 14 14 14 15 16 18 20 22 24 25 27 27 27 27 28 28 29 29 27 26
25 25 24 22 20 20 18 16 15 13 12 11 10 10 9 8 7 7 7 6 6 5 5 4 4 3 3 3 3 4 4 6 7 8 9 10 10 11 12 13 14 14 14 14 14 13 13 13 14 14 14 14 15 15 15 15 15 16 15 15 15 15 15 15 15 15 14 14 14 15 16 17 18 21 23 25 27 27 27 28 29 30 31 30 27
26 26 26 25 23 22 21 18 17 15 14 13 12 12 11 10 9 9 9 8 7 7 6 5 5 4 3 3 2 2 3 3 4 5 5 6 7 8 9 10 11 12 13 13 13 13 12 12 12 13 13 13 14 14 14 14 15 15 15 16 16 16 15 15 15 15 15 15 15 15 16 16 17 18 20 22 24 26 26 27 28 29 31 31 30
25 26 27 26 25 24 22 21 19 17 16 15 14 14 13 12 12 11 11 10 9 8 7 7 6 5 5 4 4 4 4 4 4 4 4 5 6 7 8 9 10 11 12 13 13 13 13 12 12 13 13 14 14 14 14 15 15 15 15 16 16 16 16 16 16 16 16 16 15 16 16 16 17 18 19 20 21 23 24 25 26 27 29 30 31
26 27 28 28 27 25 24 23 21 19 18 17 16 16 15 14 14 13 12 11 10 9 8 8 7 7 7 6 5 5 5 5 5 5 5 6 6 7 8 9 10 12 13 14 14 14 14 14 13 13 14 14 15 15 16 16 16 16 17 17 17 17 18 18 18 17 17 17 17 17 17 17 17 18 19 20 21 22 23 23 24 24 26 29 30
28 28 29 29 29 27 26 25 22 22 20 19 19 18 17 16 15 15 14 13 12 11 10 9 9 9 8 7 7 6 6 6 6 6 6 6 7 8 9 10 11 12 13 14 15 15 15 14 14 14 14 15 15 16 16 17 17 18 18 19 19 19 20 20 20 20 20 20 19 19 19 18 18 19 19 20 21 22 23 23 24 23 24 25 28
30 29 29 30 30 29 28 27 24 24 22 21 21 19 19 18 17 17 15 14 13 13 11 11 10 10 10 9 8 6 6 6 7 7 7 7 7 8 9 10 11 12 14 15 16 16 16 15 15 14 14 15 15 15 16 17 18 18 19 19 20 20 21 21 22 22 22 22 22 22 21 21 21 20 20 20 21 22 23 24 24 24 23 23 25
30 31 31 31 31 31 30 28 27 25 24 24 22 21 21 20 19 18 17 16 15 14 13 12 12 11 11 10 8 7 6 7 7 8 8 8 8 9 9 11 12 13 15 16 16 16 16 15 15 15 15 15 15 15 15 16 17 17 18 19 19 20 21 22 22 23 24 24 25 25 25 24 24 23 23 22 22 22 23 24 24 25 24 23 23
32 32 32 32 31 32 32 30 29 28 27 25 24 23 23 21 21 20 19 18 17 16 15 14 13 12 11 10 9 8 7 7 8 8 8 8 9 9 10 11 13 14 15 16 16 16 16 15 15 15 15 15 16 16 16 16 17 17 18 18 19 19 20 21 22 22 23 24 25 26 26 26 26 26 26 25 24 24 24 24 25 25 25 25 24
34 33 33 33 32 32 33 32 31 30 29 27 26 26 24 23 23 22 20 20 18 17 16 15 14 13 12 11 10 9 8 8 8 8 8 9 9 10 11 12 13 15 15 16 16 16 16 16 16 16 16 16 17 17 17 17 18 18 19 20 20 20 21 21 21 22 22 23 24 25 25 26 27 27 28 28 27 26 25 25 25 25 26 26 25
35 35 35 35 33 33 33 33 33 31 30 29 29 28 25 25 24 23 22 21 20 18 17 17 15 14 13 12 11 10 9 8 8 8 9 9 10 10 12 12 13 14 15 16 16 16 16 16 17 17 17 18 18 19 19 20 20 20 21 21 22 22 23 23 23 23 23 23 23 24 24 24 25 26 27 28 28 29 28 27 26 26 26 26 26
37 37 36 36 35 34 33 34 34 33 32 32 31 29 27 27 26 24 23 22 21 20 19 18 17 16 15 14 12 11 10 9 8 8 9 9 10 11 12 13 13 14 15 16 16 16 16 17 17 18 19 19 20 20 21 22 22 22 23 23 24 24 25 25 25 25 25 25 25 25 25 24 24 24 24 25 26 28 29 29 28 26 26 26 26
37 37 37 37 36 35 34 35 36 35 34 33 32 31 29 28 27 26 24 23 22 21 20 19 18 17 16 15 14 12 11 9 9 9 10 10 11 12 13 13 13 14 15 16 16 17 17 18 18 19 20 20 21 22 22 23 23 24 24 25 25 26 26 26 26 27 27 26 26 26 26 26 25 25 24 24 24 24 25 27 28 28 27 26 25
37 37 38 37 36 36 35 36 37 36 36 35 34 33 31 29 28 27 25 25 24 23 22 21 20 18 17 16 15 14 12 10 10 10 10 11 12 13 14 13 13 14 15 16 17 17 18 19 20 20 21 21 23 24 25 25 25 26 26 27 27 27 28 27 27 27 27 27 26 26 25 25 25 24 24 24 23 23 23 24 25 26 27 27 26
37 38 38 37 36 36 36 36 37 37 37 37 36 34 33 30 29 29 27 26 26 25 24 22 21 20 19 17 16 15 13 11 10 10 11 11 12 13 14 13 13 14 15 16 17 17 18 19 20 21 21 22 23 25 26 27 28 28 29 29 30 30 30 29 29 28 28 28 27 26 25 24 22 21 21 21 22 23 24 25 25 25 26 27 28
38 38 39 38 37 37 36 37 37 38 38 38 37 36 34 32 31 30 28 28 28 26 25 24 23 22 20 19 17 16 14 12 11 11 11 11 13 14 14 13 13 14 15 16 16 17 19 19 20 22 23 24 25 26 27 28 29 30 30 32 32 33 33 32 32 31 30 29 28 26 24 22 21 21 22 24 25 25 26 26 27 28 29 29 29
37 38 39 38 37 37 37 37 38 37 39 39 38 37 35 33 32 31 30 30 29 28 27 25 24 23 22 21 19 17 15 13 11 11 11 12 13 14 14 13 13 14 15 16 17 18 19 20 20 21 23 24 25 26 28 29 31 32 34 35 35 35 35 35 34 33 32 29 26 23 22 22 24 27 31 32 32 30 29 30 31 32 32 32 32
37 38 39 38 37 37 37 37 37 38 39 40 39 38 36 34 34 33 32 32 31 29 28 27 26 25 24 22 20 18 16 14 13 12 13 13 14 14 14 14 14 15 15 16 17 18 20 20 21 21 21 23 25 27 29 31 33 36 37 37 37 37 37 36 35 33 29 26 24 24 25 28 31 35 37 36 35 35 35 35 35 36 35 35 35
37 38 38 38 37 37 37 37 38 39 39 40 40 38 37 36 35 35 34 33 32 31 30 28 27 26 25 23 21 19 17 15 14 14 14 14 15 15 14 14 15 15 15 16 17 18 19 20 21 21 21 23 25 28 31 34 36 37 38 39 39 38 37 36 35 30 24 22 24 28 32 35 38 39 38 36 36 36 36 36 37 37 37 36 36
37 38 38 38 38 37 38 38 39 39 40 41 41 40 39 38 37 37 36 35 34 33 31 30 28 27 26 24 22 20 18 17 15 15 15 14 15 15 15 15 15 15 15 16 17 18 19 20 21 22 23 23 25 28 31 34 37 38 40 41 39 39 38 36 33 25 19 22 28 33 37 37 37 36 36 35 35 35 35 36 37 36 37 37 36
37 38 38 37 37 37 38 39 39 40 40 42 42 42 42 41 39 38 38 37 35 34 33 31 30 29 28 26 23 21 19 18 16 15 15 14 14 15 15 15 15 15 15 16 17 18 19 20 21 22 24 25 26 28 31 35 37 40 44 44 42 40 39 36 27 17 19 28 35 36 35 33 34 35 36 37 35 35 36 37 38 38 38 38 36
38 38 37 36 36 37 38 39 39 40 41 42 43 43 43 42 40 38 38 37 36 35 34 32 31 30 29 27 24 22 20 18 17 16 15 15 15 15 16 16 15 15 16 17 18 19 20 21 22 23 23 25 27 28 31 34 37 41 45 46 45 42 41 34 20 18 29 37 36 33 33 34 37 38 37 37 37 38 38 39 40 41 40 38 37
38 37 36 35 36 38 38 39 39 40 41 41 43 43 43 41 39 38 37 37 36 36 34 33 32 32 30 27 25 23 21 19 18 17 16 15 15 16 17 16 16 16 16 17 18 19 20 21 22 23 23 25 26 27 30 32 35 39 40 41 42 43 39 24 19 33 40 36 32 33 38 39 39 38 38 38 39 40 41 42 42 42 42 41 41
37 36 36 36 37 38 38 39 39 39 40 41 43 43 42 40 39 38 37 37 37 36 36 35 34 33 31 28 26 24 22 21 19 18 17 16 17 17 17 17 16 16 17 18 19 19 21 21 22 22 23 25 27 27 29 31 34 36 34 34 34 33 26 22 37 48 36 31 36 38 38 38 38 40 40 42 42 43 43 44 45 46 46 46 45
36 36 37 37 37 37 37 37 38 39 40 41 43 43 43 42 41 40 39 39 38 38 38 38 36 35 32 29 27 26 24 22 21 19 18 17 18 18 17 17 16 17 18 18 19 20 21 22 22 22 23 25 27 28 30 31 33 33 31 30 25 21 25 35 47 44 34 38 43 40 38 38 41 42 42 44 44 45 47 47 47 48 49 49 47
34 34 35 36 36 36 35 35 36 38 39 41 43 44 45 45 45 45 44 44 43 43 42 39 37 35 33 31 29 27 25 23 22 20 19 19 19 18 18 17 17 17 18 19 20 21 21 22 22 23 23 24 27 29 31 32 32 32 30 28 25 24 32 38 37 37 46 51 45 41 43 42 43 44 45 47 48 48 48 49 50 50 50 50 49
30 32 34 34 34 33 33 33 34 36 39 41 43 45 46 47 47 47 47 46 46 44 42 39 37 35 33 32 31 29 27 25 23 21 20 20 19 19 18 17 17 18 19 20 21 22 22 22 23 23 23 24 26 29 32 32 32 32 30 29 28 28 31 32 31 35 46 53 52 49 47 46 46 47 48 49 49 50 50 50 51 51 51 51 50
28 31 32 32 31 31 31 31 33 35 38 41 43 45 46 47 47 47 47 46 45 43 40 38 37 35 34 34 32 30 28 26 24 22 21 21 20 19 18 18 18 18 19 20 21 22 23 23 24 24 24 25 27 29 31 32 32 32 30 29 29 28 27 27 28 29 32 44 57 58 52 51 50 48 50 51 50 51 52 52 51 51 51 51 51
27 28 28 28 29 29 30 31 33 35 37 40 43 44 46 47 47 47 47 46 44 42 39 39 39 38 37 36 34 31 29 27 25 23 22 21 20 19 19 18 18 19 20 21 22 23 24 24 24 24 24 26 27 29 30 31 31 31 31 30 29 29 28 27 26 27 27 33 47 58 60 58 57 52 48 51 54 51 51 52 52 53 53 53 53
25 25 25 26 28 29 31 32 32 34 37 39 42 44 45 47 47 47 47 45 44 42 41 40 41 40 38 37 34 32 30 28 26 25 23 22 20 19 19 19 19 19 20 22 23 24 24 25 25 25 26 27 28 28 29 30 31 30 30 30 29 28 28 28 27 27 27 28 36 50 57 59 63 61 51 51 54 52 53 54 54 55 54 54 55
23 24 25 26 28 30 31 31 32 34 36 38 41 43 45 46 47 47 46 46 45 44 44 43 43 42 39 37 35 33 31 29 27 26 24 22 21 20 20 19 19 20 21 22 24 24 25 26 26 26 27 27 28 28 29 30 30 30 30 29 30 29 28 29 29 28 28 29 34 44 52 53 59 65 59 55 55 54 53 55 55 55 55 55 54
Wind_Direction
185 192 192 192 184 175 169 156 149 147 152 165 150 129 110 75 48 20 12 15 7 349 354 347 323 323 341 327 320 320 319 327 328 320 314 315 317 319 322 325 329 333 338 346 347 348 352 350 346 345 346 346 346 348 352 355 353 351 349 347 342 338 334 330 325 325 326 326 321 315 311 305 302 301 301 305 307 307 307 311 319 326 329 324 316
182 192 191 195 196 193 202 204 197 187 187 201 202 204 215 287 309 317 318 332 345 356 17 17 356 7 26 348 341 356 356 347 339 341 330 319 316 314 319 325 327 326 326 333 332 331 335 334 333 332 331 329 328 331 334 340 343 343 340 338 338 335 333 330 325 321 320 322 324 325 322 314 304 300 301 303 306 305 304 306 308 318 326 326 322
181 189 187 195 198 198 213 216 216 215 230 246 241 242 250 272 282 286 292 294 296 305 322 343 348 356 1 353 6 14 16 16 2 6 2 348 332 323 321 328 337 334 328 330 330 326 325 323 323 323 319 316 319 322 322 326 328 329 332 332 332 331 331 329 327 323 321 320 320 323 325 324 308 296 299 301 305 306 305 305 304 307 316 319 320
183 189 187 184 187 195 204 204 207 223 254 266 270 273 277 286 291 298 301 295 290 293 295 298 299 304 309 314 331 332 338 350 351 349 351 350 343 341 335 335 344 342 336 330 326 322 321 321 318 318 318 312 315 317 316 322 325 325 325 325 326 326 328 328 329 327 324 322 320 319 321 322 312 296 293 296 303 306 307 307 305 302 303 308 313
178 192 190 166 167 184 172 153 124 122 327 298 301 302 310 311 309 314 311 305 300 295 292 289 287 287 290 295 299 300 304 311 315 312 315 318 320 330 335 336 336 334 334 327 325 328 328 333 331 322 317 311 312 313 314 317 321 323 323 322 322 323 325 327 329 330 329 326 322 320 317 315 314 301 289 293 301 303 306 308 308 305 301 302 304
175 193 190 154 159 163 139 119 86 51 5 341 329 321 319 318 314 318 315 312 308 304 299 290 288 290 291 292 291 292 295 296 298 298 298 302 309 315 322 326 325 323 322 318 318 323 327 337 340 328 319 318 318 316 315 315 317 320 319 319 321 322 324 328 329 330 330 328 325 320 318 319 315 304 293 292 295 296 300 304 307 306 303 299 298
179 188 179 155 160 154 143 132 120 124 97 288 326 328 321 319 316 318 317 317 314 311 307 300 299 298 294 293 292 292 292 291 291 291 293 296 301 304 308 312 314 314 313 311 310 309 305 306 309 307 312 318 320 319 318 315 317 318 317 317 317 320 322 325 327 327 328 328 325 319 317 319 314 305 299 295 294 295 298 302 303 303 301 297 295
178 181 172 161 154 144 138 127 129 132 129 114 85 56 24 6 350 343 337 332 327 322 318 313 310 307 303 301 299 297 295 294 292 291 293 294 295 296 298 298 299 301 301 303 304 304 300 299 299 299 303 307 309 311 312 311 312 313 314 315 314 315 317 320 322 323 324 324 322 320 317 314 313 309 308 305 299 298 299 302 301 301 298 294 293
181 182 168 157 148 139 128 124 122 108 98 80 65 49 35 18 8 358 351 342 337 332 327 324 320 318 314 311 307 305 304 302 301 300 300 302 302 302 301 299 297 295 294 294 293 295 296 297 298 298 300 301 302 304 305 305 305 306 307 309 309 310 309 311 314 317 319 318 317 320 315 307 310 312 314 312 304 302 306 304 301 300 297 295 293
188 182 161 153 145 137 126 118 106 92 83 72 60 45 30 13 6 352 345 340 335 329 325 322 320 319 315 315 313 311 311 310 310 309 310 312 313 313 313 311 308 304 299 295 291 289 289 290 292 293 293 294 297 299 302 302 302 302 303 304 305 305 304 305 307 309 311 312 313 315 309 303 305 307 309 309 307 309 313 312 305 300 298 297 295
194 181 159 154 144 132 126 116 106 102 91 77 66 49 28 9 359 346 343 334 331 327 323 321 317 317 314 314 313 312 313 313 314 313 315 315 316 315 315 314 312 311 308 304 299 294 291 289 289 288 288 289 291 293 294 295 296 297 298 300 301 301 301 302 304 305 305 305 306 306 306 305 304 302 304 307 309 312 314 314 310 306 301 298 297
200 183 172 172 170 158 151 144 140 128 103 82 60 42 21 8 357 350 345 335 332 326 322 322 321 320 319 319 319 318 317 316 316 315 315 315 315 313 311 310 308 307 306 305 304 302 300 298 295 294 292 292 291 290 289 289 289 290 292 293 295 296 297 298 300 301 301 301 301 299 302 304 303 303 302 302 303 307 310 309 307 307 305 301 298
206 193 193 198 198 190 181 173 157 126 86 66 45 36 20 13 8 2 355 352 345 338 336 333 335 333 333 334 333 332 332 330 328 326 325 323 322 320 318 315 311 309 305 303 302 302 303 303 302 301 301 300 299 297 295 292 290 289 289 289 289 290 291 292 294 296 297 297 298 297 297 298 299 301 301 298 297 300 303 305 306 306 306 304 301
213 207 204 204 202 193 186 174 146 94 69 55 47 44 31 23 15 11 6 9 5 2 3 359 1 1 2 4 5 7 4 3 360 358 355 351 349 345 343 338 335 330 324 318 312 309 307 306 305 304 304 304 303 302 301 300 298 296 293 291 289 288 287 287 288 289 291 292 293 293 294 295 295 297 298 297 298 300 301 304 306 305 305 305 304
216 212 209 209 205 196 186 168 148 116 83 62 56 46 37 30 18 17 18 24 34 38 43 42 41 37 37 36 34 33 30 28 24 21 17 12 9 4 1 357 355 352 347 343 336 330 324 318 315 311 309 307 306 304 303 302 300 299 297 296 294 291 289 286 284 283 284 285 287 289 292 293 293 293 291 291 295 298 299 300 301 302 302 302 304
219 219 218 218 215 203 189 178 164 133 99 75 55 40 31 23 17 16 23 36 49 57 66 67 67 62 56 51 45 40 34 31 27 24 21 17 14 9 6 3 360 358 355 352 349 345 341 336 331 326 321 317 313 310 308 306 303 302 301 299 297 296 294 291 288 284 281 279 281 284 287 291 292 290 287 288 292 294 296 296 296 296 296 298 300
225 228 228 227 222 206 196 199 189 173 137 88 42 24 16 7 6 4 10 25 39 52 60 63 64 60 55 48 42 37 33 29 28 25 22 20 17 15 11 8 6 3 1 357 355 353 350 348 345 341 337 332 328 325 320 317 314 311 310 307 305 302 299 295 291 287 282 279 278 279 282 286 289 288 286 288 291 293 293 292 292 293 294 297 297
230 233 232 234 227 208 204 207 203 196 189 171 288 333 346 348 349 348 353 1 15 28 34 40 40 40 37 33 31 28 28 26 26 23 22 20 17 16 12 10 8 6 4 2 360 357 356 354 352 349 347 345 341 338 334 331 327 323 321 318 316 313 309 302 295 292 289 286 283 280 279 280 280 280 280 283 288 288 287 287 288 288 289 293 296
231 234 233 236 231 215 209 209 210 202 197 202 221 249 271 301 320 323 328 337 350 2 6 13 14 19 21 22 24 21 22 22 21 19 17 15 12 11 8 5 3 2 0 359 358 356 355 354 353 352 350 349 348 346 343 340 337 333 330 327 324 322 319 315 309 304 299 294 289 286 281 278 276 276 276 277 281 283 284 285 284 284 283 286 289
230 233 232 234 231 220 213 211 211 204 203 207 216 229 242 260 281 289 292 301 315 331 338 348 353 360 5 8 8 8 13 14 14 13 11 9 6 3 0 359 356 354 353 352 352 351 350 350 349 349 348 347 347 345 343 341 340 339 336 333 331 328 326 324 321 317 311 304 298 293 287 282 281 280 279 277 276 277 277 278 279 281 281 281 283
232 234 232 232 229 223 216 214 213 208 208 209 215 225 232 243 254 260 261 265 273 285 295 310 321 333 344 348 353 357 3 5 6 6 6 4 0 357 355 353 350 347 346 345 344 344 344 344 343 343 343 341 340 339 338 338 337 337 337 336 334 331 330 329 327 325 321 316 310 304 298 293 290 288 287 284 280 277 275 274 274 275 276 279 280
235 235 233 232 229 225 220 216 215 212 212 213 218 225 231 236 243 246 245 249 253 260 266 272 282 292 310 323 339 348 353 357 0 2 4 3 358 357 353 349 345 342 340 338 337 336 337 337 337 336 335 335 335 335 334 335 334 334 334 333 333 332 331 330 329 328 327 324 321 316 311 306 301 296 293 291 288 284 280 277 275 273 273 274 277
240 238 237 235 231 228 224 219 217 216 216 217 221 225 231 234 238 239 239 243 245 250 253 256 262 264 270 276 285 302 326 340 348 355 359 359 359 360 357 352 346 341 337 334 331 330 329 330 330 330 330 329 330 330 331 331 331 331 330 330 331 331 330 328 327 326 325 325 324 321 319 315 311 308 303 299 296 293 288 283 278 275 274 272 272
245 242 240 238 234 230 227 222 219 218 219 220 223 226 230 233 235 235 236 240 241 244 245 247 249 249 252 256 267 283 303 316 324 336 345 350 357 359 359 358 355 350 344 337 332 328 328 328 328 329 329 329 328 328 329 328 328 328 328 328 328 327 327 326 324 324 322 321 321 320 318 318 316 314 312 309 305 303 299 293 286 280 277 274 272
248 244 241 240 237 232 230 226 220 219 220 222 224 226 229 232 232 232 234 236 238 239 240 242 242 244 246 250 261 275 293 305 314 321 333 340 347 353 356 359 358 356 351 345 339 334 332 332 333 334 333 332 332 332 331 330 330 329 329 328 328 327 326 325 323 322 321 319 318 318 316 315 315 314 314 313 311 309 306 303 297 290 283 278 275
245 245 243 242 239 234 233 229 222 221 222 223 226 228 230 231 231 231 232 234 236 237 237 239 240 243 245 249 257 270 287 297 308 314 323 330 337 346 350 354 355 353 351 349 344 339 336 335 335 336 336 336 336 336 335 335 334 332 332 331 330 329 327 325 323 321 319 318 316 314 313 311 311 310 310 311 312 311 310 308 304 300 294 286 281
245 246 245 243 239 235 234 230 224 222 222 224 226 228 230 231 231 231 231 233 234 236 236 238 239 242 246 250 256 267 282 291 300 306 312 320 328 336 342 347 348 349 349 348 346 341 337 335 336 337 338 338 338 339 338 338 336 335 335 333 332 331 329 326 324 322 320 318 316 314 313 311 310 309 307 307 307 309 309 309 308 305 301 295 289
245 246 245 243 239 236 234 230 225 224 224 225 227 228 231 231 231 231 231 232 234 236 237 237 240 242 246 250 256 265 275 285 292 298 304 311 319 327 334 338 341 346 347 347 345 340 337 336 337 338 338 339 339 339 339 338 337 336 334 333 332 330 329 328 326 325 323 321 319 317 315 314 313 311 309 308 306 305 306 306 308 307 305 300 295
243 244 245 244 241 237 235 231 227 225 225 226 228 229 232 231 231 231 230 232 234 236 237 238 240 242 246 251 256 262 269 279 286 292 298 303 312 320 326 332 338 344 346 345 343 339 338 337 336 337 338 339 338 338 338 338 338 336 334 333 331 330 327 326 325 324 322 321 319 318 317 316 316 314 313 311 309 306 305 304 304 305 305 303 300
242 243 244 244 243 239 235 232 229 227 226 227 228 230 231 231 231 232 230 232 234 235 237 238 240 241 246 250 254 260 265 274 282 288 294 300 308 316 323 330 337 341 344 342 340 339 338 335 335 337 339 340 339 339 339 339 340 338 337 336 333 331 329 326 325 322 319 318 317 316 316 316 315 315 314 312 310 309 307 306 304 302 302 303 302
239 240 242 243 242 241 237 233 230 228 227 227 229 231 231 231 232 231 231 232 233 235 237 238 240 241 245 249 253 257 263 272 280 287 291 300 308 315 321 328 335 338 341 340 339 338 336 335 336 339 340 340 341 342 341 341 341 341 339 338 336 334 332 329 327 324 322 319 317 315 314 313 312 311 312 312 312 311 310 308 306 304 301 301 301
237 240 242 242 242 242 239 235 232 229 228 228 230 232 232 232 232 231 232 233 233 235 236 238 240 241 244 247 251 256 262 269 277 285 291 300 308 314 318 325 333 336 337 338 337 336 335 336 337 339 340 341 342 342 342 342 341 341 340 338 337 335 333 332 331 328 326 324 321 320 317 314 311 309 308 308 310 310 310 310 308 307 304 301 301
237 240 240 242 243 242 240 236 232 231 230 230 231 232 232 232 232 232 232 233 233 235 236 238 239 240 243 245 250 255 261 268 274 283 290 299 305 311 316 322 329 332 334 336 336 336 336 337 337 339 341 341 342 341 342 341 340 339 338 337 336 335 334 332 331 328 326 325 323 322 319 317 314 313 311 309 308 307 308 308 307 308 307 305 302
236 237 239 242 242 242 240 236 233 232 231 231 231 232 233 232 232 232 232 232 233 235 236 237 238 239 241 244 248 253 258 263 270 279 286 296 303 307 312 318 325 329 332 335 336 337 337 337 338 340 340 340 341 342 341 339 338 338 337 337 336 334 333 331 329 328 327 326 324 322 319 317 316 315 313 312 310 310 310 308 307 306 306 306 305
235 236 239 241 241 241 240 237 235 233 231 231 231 232 233 233 233 233 232 232 233 234 236 237 238 239 241 244 247 250 254 257 264 274 283 293 299 302 307 314 322 327 331 334 335 336 337 338 338 338 338 339 341 341 339 337 337 337 336 336 335 334 333 331 330 329 329 328 327 325 323 322 321 318 315 313 313 313 312 311 310 309 307 306 305
237 237 238 238 240 241 239 238 236 234 232 232 232 232 233 233 233 233 232 233 234 235 236 237 238 240 241 243 246 248 249 254 260 269 279 288 294 298 305 313 320 324 328 330 332 335 337 337 337 336 337 339 339 338 337 336 335 335 336 336 335 335 333 333 333 332 332 330 329 329 328 328 326 324 322 320 318 316 315 314 314 314 313 311 308
237 236 237 237 239 240 239 239 238 236 233 233 232 232 233 233 233 234 233 234 234 235 236 237 238 240 242 243 244 246 248 252 257 266 276 284 291 297 305 313 317 320 323 328 334 336 335 334 333 335 337 336 335 335 334 334 335 335 336 336 335 334 334 334 334 333 332 332 333 333 332 330 327 327 326 326 325 323 321 319 317 316 315 315 313
236 235 237 238 240 241 240 239 239 237 234 233 233 232 233 233 233 234 233 234 234 235 236 237 239 240 241 243 243 244 247 250 255 264 274 283 291 298 305 311 314 317 324 330 334 333 331 329 329 333 334 334 334 335 336 336 336 336 336 335 335 334 334 334 334 333 334 335 336 334 332 330 328 328 328 328 327 325 322 320 319 318 316 315 315
234 233 235 236 238 239 239 239 238 236 234 233 233 233 232 232 232 233 232 232 233 234 235 236 238 239 240 243 243 243 245 248 254 263 273 283 291 297 304 309 312 317 324 329 330 327 326 325 326 329 330 333 337 339 339 337 336 335 334 333 333 333 333 334 335 336 337 337 336 334 332 329 327 327 327 326 324 321 319 318 318 317 317 316 315
233 232 232 233 236 238 237 237 236 236 234 232 232 230 230 230 231 232 232 231 232 233 234 235 237 238 240 242 242 242 244 248 254 263 273 283 290 296 302 306 310 315 321 324 323 322 321 321 323 325 328 334 339 341 340 337 335 333 332 332 332 332 332 334 335 337 339 338 335 331 327 324 322 322 321 319 318 317 315 315 316 316 316 316 315
230 229 230 232 235 238 238 237 236 235 234 233 233 231 231 231 231 233 233 232 232 233 234 235 236 238 240 241 240 241 243 247 253 262 271 280 288 294 298 301 307 313 317 318 318 319 319 319 321 324 329 335 339 341 339 337 336 335 332 330 330 331 332 334 334 334 334 330 326 322 319 316 315 315 316 316 316 316 315 315 316 316 315 315 313
228 227 231 234 236 239 239 239 237 236 236 236 235 234 234 235 236 237 236 234 234 235 235 236 237 238 239 240 239 240 242 247 253 261 269 277 284 289 293 298 304 309 311 313 315 316 315 316 319 324 331 336 338 339 338 337 337 337 334 330 330 330 330 334 331 322 322 320 317 316 316 316 315 316 317 317 317 316 316 316 316 315 315 313 310
230 230 234 235 235 237 238 238 237 237 237 237 237 236 236 237 238 239 238 235 234 235 235 236 237 237 238 239 238 239 242 246 252 259 266 273 279 284 290 295 301 304 307 309 311 312 312 315 319 326 332 334 337 338 338 337 336 336 334 330 330 328 330 335 316 313 318 317 317 319 318 318 317 317 316 316 316 316 316 316 315 314 314 312 309
229 230 232 233 234 236 237 238 238 238 238 238 238 237 236 236 236 237 236 234 234 233 233 233 235 236 238 238 237 238 241 245 251 257 262 268 274 281 286 292 297 301 303 306 307 308 309 313 319 326 331 332 333 334 335 335 334 334 333 329 329 327 328 324 313 316 321 318 318 318 316 316 316 316 316 316 316 316 315 314 314 314 313 311 309
229 230 231 232 233 235 237 238 238 239 238 238 238 236 234 233 232 230 229 229 229 230 231 232 234 236 238 237 236 238 241 245 249 254 258 265 271 278 283 289 294 297 300 303 304 304 306 311 317 323 329 330 329 330 331 332 331 331 329 326 326 320 315 318 319 320 319 316 316 316 315 316 315 315 315 314 314 314 314 313 313 312 311 310 309
228 229 230 232 233 235 237 238 239 239 238 238 237 235 234 233 232 230 229 229 229 230 233 236 237 238 238 236 235 237 241 244 248 252 257 263 270 275 280 286 291 295 298 299 300 301 304 309 314 319 326 328 326 325 327 329 328 327 326 321 318 312 312 318 321 317 315 317 318 316 316 315 315 315 314 313 314 313 313 312 311 310 309 308 307
225 226 228 230 232 234 237 239 240 240 239 238 237 235 234 234 234 235 235 235 235 236 237 238 239 239 237 235 235 237 240 243 246 250 256 261 268 273 278 283 288 292 294 296 297 298 302 307 311 317 324 326 323 322 323 325 324 324 322 318 315 312 313 316 315 315 317 317 316 316 315 314 315 314 313 313 313 312 312 311 310 309 308 307 305
222 223 225 227 229 232 235 238 240 240 239 238 237 236 236 236 236 236 237 238 239 240 239 239 237 235 233 233 235 237 239 241 245 249 254 260 265 270 275 280 285 288 291 293 294 296 301 305 309 316 321 322 320 319 320 321 321 320 319 315 313 312 312 311 310 310 309 309 311 314 314 314 314 312 312 312 311 311 311 310 309 308 306 304 302
219 221 224 226 228 230 233 236 238 240 239 238 237 237 238 238 238 237 237 237 237 238 237 236 235 233 232 234 235 237 238 240 243 247 252 258 263 267 272 277 282 286 288 290 292 295 299 303 308 313 317 318 318 317 317 318 317 316 316 314 313 313 312 310 308 307 303 300 305 310 314 314 312 311 311 310 309 309 308 307 307 305 303 302 301
218 221 223 225 227 228 231 233 236 238 239 239 238 238 238 237 238 238 237 236 235 234 233 232 233 233 233 234 236 236 237 239 242 246 251 256 260 264 270 275 280 283 286 288 290 294 297 301 305 310 314 316 316 315 314 315 315 313 314 313 312 313 311 309 308 307 304 296 296 304 310 311 310 309 308 308 307 306 306 306 305 304 303 303 303
217 219 221 223 226 227 229 232 234 236 238 240 239 239 238 238 239 239 238 237 235 233 233 232 232 234 234 235 235 236 238 239 242 245 249 254 258 262 268 273 277 281 284 287 290 293 296 300 305 310 314 315 314 312 312 313 312 311 311 311 311 311 309 308 309 307 301 295 293 298 304 308 307 305 305 307 306 305 305 305 305 304 304 304 303